Flag for Aruba Weather past 2 weeks in Oranjestad, Aruba

Now
82 °F

Passing clouds.


Feels Like: 88 °F
Forecast: 78 / 87 °F
Wind: 14 mph from East

Location: Queen Beatrix Airport - Aruba

Current Time: Dec 27, 2014 at 8:22:18 AM

Latest Report: Dec 27, 2014 at 8:00 AM


Visibility: N/A

Pressure: 29.95 "Hg

Humidity: 74%

Dew point: 73 °F

Location of OranjestadLocation

Historic Weather in Oranjestad — Graph

°F

Oranjestad temperature yesterday

Maximum temperature yesterday: 88 °F (at 12:00 PM)
Minimum temperature yesterday: 79 °F (at 6:00 AM)
Average temperature yesterday: 82 °F

Past Weeks' High & Low Weather Summary

 TemperatureHumidityPressure
High88 °F (Dec 13, 12:00 PM)89% (Dec 15, 1:00 AM)29.98 "Hg (Dec 15, 1:00 AM)
Low75 °F (Dec 19, 10:00 AM)59% (Dec 18, 10:00 AM)29.77 "Hg (Dec 13, 3:00 PM)
Average82 °F74%29.89 "Hg
* Reported Dec 12 7:00 AM — Dec 27 7:00 AM, Oranjestad, Weather by CustomWeather, © 2014

Note: Actual official high and low records may vary slightly from our data, if they occured in-between our weather recording intervals... More about our weather records

Advertising

Oranjestad weather history for previous 24 hours

 ConditionsComfort  
Time TempWeatherWind HumidityBarometerVisibility
7:00 AM
Dec 27
79 °FPassing clouds.13 mph79%29.92 "HgN/A
6:00 AM79 °FPassing clouds.13 mph84%29.89 "HgN/A
5:00 AM81 °FPassing clouds.12 mph79%29.89 "HgN/A
4:00 AM81 °FPassing clouds.15 mph79%29.89 "HgN/A
3:00 AM81 °FPassing clouds.16 mph79%29.89 "HgN/A
2:00 AM81 °FPassing clouds.16 mph79%29.89 "HgN/A
1:00 AM81 °FPassing clouds.18 mph79%29.89 "HgN/A
12:00 AM81 °FPassing clouds.20 mph79%29.92 "HgN/A
10:00 PM
Dec 26
81 °FPassing clouds.20 mph79%29.89 "HgN/A
9:00 PM82 °FPassing clouds.22 mph74%29.89 "HgN/A
8:00 PM81 °FPassing clouds.17 mph79%29.86 "HgN/A
6:00 PM82 °FScattered clouds.20 mph74%29.83 "HgN/A
5:00 PM82 °FPassing clouds.21 mph74%29.83 "HgN/A
4:00 PM84 °FScattered showers. Partly sunny.17 mph70%29.83 "HgN/A
3:00 PM86 °FScattered clouds.18 mph66%29.83 "HgN/A
2:00 PM86 °FScattered clouds.17 mph62%29.86 "HgN/A
1:00 PM86 °FScattered clouds.18 mph66%29.89 "HgN/A
12:00 PM88 °FScattered clouds.18 mph62%29.92 "HgN/A
11:00 AM86 °FPassing clouds.18 mph66%29.95 "HgN/A
10:00 AM82 °FPassing clouds.18 mph70%29.95 "HgN/A
9:00 AM81 °FPassing clouds.20 mph79%29.95 "HgN/A
8:00 AM81 °FRain. Scattered clouds.16 mph79%29.92 "HgN/A
Weather by CustomWeather, © 2014

See weather overviewHow to use our weather pages